contact:dominique.lefevre@mio.osupytheas.fr, maurice.libes@osupytheas.fr, didier.mallarino@osupytheas.fr
Project:EMSO http://www.emso-fr.org/EMSO-France
Depth: 2436.0 m
Title:EMSO Ligure Ouest : Data MII capteur AQUADOPP
Date,Latitude,Longitude,X_East,Y_North,Z_Up,Amplitude_X,Amplitude_Y,Amplitude_Z,Batterie,SoundSpeed,Heading,Pitch,Roll,Pressure,TIS,Speed,Direction
, degrees North, degrees East, m.s-1, m.s-1,m.s-1, 1, 1, 1, Volt, m.s-1, degree, degree, degree, dbar, degree_C, m.s-1, degree
2020-02-16T00:04:03,42.805,6.029,0.012,0.016,-0.052,105.0,108.0,102.0,13.4,1505.3,323.0,-0.7,1.8,2470.339,13.31,0.02,36.9
2020-02-16T00:07:03,42.805,6.029,0.037,0.011,-0.022,106.0,108.0,101.0,13.4,1505.3,326.2,-0.7,1.8,2470.336,13.31,0.038,73.4
2020-02-16T00:10:03,42.805,6.029,0.016,-0.003,-0.048,105.0,108.0,102.0,13.3,1505.3,325.1,-0.7,1.9,2470.357,13.32,0.016,100.6
2020-02-16T00:13:03,42.805,6.029,0.035,0.003,0.009,104.0,107.0,101.0,13.3,1505.3,326.7,-0.7,1.8,2470.323,13.32,0.035,85.1
2020-02-16T00:16:03,42.805,6.029,0.013,0.009,-0.037,105.0,109.0,101.0,13.3,1505.3,323.5,-0.7,1.8,2470.334,13.32,0.015,55.3
2020-02-16T00:19:03,42.805,6.029,0.048,0.016,-0.012,105.0,108.0,102.0,13.4,1505.3,327.4,-0.7,1.8,2470.35,13.32,0.05,71.6
2020-02-16T00:22:03,42.805,6.029,0.021,0.019,-0.023,105.0,108.0,101.0,13.4,1505.3,325.9,-0.7,1.8,2470.327,13.32,0.028,47.9
2020-02-16T00:25:03,42.805,6.029,0.023,0.022,-0.022,106.0,108.0,101.0,13.3,1505.3,323.2,-0.7,1.9,2470.302,13.32,0.031,46.3
2020-02-16T00:28:03,42.805,6.029,0.04,0.005,-0.04,106.0,108.0,100.0,13.4,1505.3,327.6,-0.7,1.8,2470.361,13.32,0.04,82.9
2020-02-16T00:31:03,42.805,6.029,0.026,0.007,-0.024,105.0,108.0,103.0,13.3,1505.3,326.5,-0.7,1.8,2470.329,13.32,0.026,74.9
2020-02-16T00:34:03,42.805,6.029,0.034,0.003,-0.031,106.0,107.0,101.0,13.3,1505.3,324.6,-0.7,1.9,2470.337,13.33,0.034,85.0
2020-02-16T00:37:03,42.805,6.029,0.015,-0.004,0.001,106.0,108.0,102.0,13.4,1505.3,322.9,-0.7,1.8,2470.298,13.33,0.015,104.9
2020-02-16T00:40:03,42.805,6.029,-0.01,0.011,-0.037,103.0,109.0,101.0,13.4,1505.3,328.2,-0.7,1.8,2470.333,13.33,0.014,317.7
2020-02-16T00:43:03,42.805,6.029,0.029,0.002,-0.019,104.0,108.0,101.0,13.4,1505.3,325.4,-0.7,1.8,2470.323,13.33,0.029,86.1
2020-02-16T00:46:03,42.805,6.029,0.021,0.017,-0.075,105.0,107.0,101.0,13.3,1505.3,323.9,-0.7,1.8,2470.326,13.33,0.027,51.0
2020-02-16T00:49:03,42.805,6.029,0.032,-0.001,-0.044,105.0,108.0,100.0,13.3,1505.3,324.2,-0.7,1.8,2470.327,13.33,0.032,91.8
2020-02-16T00:52:02,42.805,6.029,0.004,-0.004,-0.032,104.0,109.0,102.0,13.3,1505.3,323.0,-0.7,1.8,2470.297,13.33,0.005,135.0
2020-02-16T00:55:03,42.805,6.029,0.006,0.024,-0.037,104.0,109.0,101.0,13.4,1505.3,326.6,-0.7,1.8,2470.345,13.33,0.024,14.0
2020-02-16T00:58:03,42.805,6.029,0.013,0.012,-0.043,105.0,108.0,102.0,13.3,1505.3,323.8,-0.7,1.8,2470.329,13.33,0.017,47.3
2020-02-16T01:04:03,42.805,6.029,0.013,0.009,-0.053,105.0,110.0,102.0,13.3,1505.3,325.6,-0.7,1.8,2470.361,13.31,0.015,55.3
2020-02-16T01:07:03,42.805,6.029,0.024,0.001,-0.047,103.0,108.0,101.0,13.4,1505.3,326.1,-0.7,1.8,2470.369,13.31,0.024,87.6
2020-02-16T01:10:03,42.805,6.029,0.017,0.0,-0.031,104.0,108.0,102.0,13.3,1505.3,326.4,-0.7,1.8,2470.367,13.32,0.017,90.0
2020-02-16T01:13:03,42.805,6.029,0.017,-0.001,-0.034,105.0,109.0,101.0,13.4,1505.3,327.9,-0.7,1.8,2470.361,13.32,0.017,93.4
2020-02-16T01:16:03,42.805,6.029,0.039,0.013,-0.03,104.0,108.0,103.0,13.4,1505.3,325.1,-0.7,1.8,2470.324,13.32,0.041,71.6
2020-02-16T01:19:03,42.805,6.029,0.014,-0.003,-0.02,106.0,108.0,101.0,13.3,1505.3,323.7,-0.7,1.8,2470.322,13.33,0.014,102.1
2020-02-16T01:22:03,42.805,6.029,0.029,0.021,-0.027,105.0,107.0,101.0,13.4,1505.3,326.2,-0.7,1.9,2470.338,13.32,0.035,54.1
2020-02-16T01:25:03,42.805,6.029,0.028,0.005,-0.02,103.0,109.0,102.0,13.3,1505.3,327.8,-0.7,1.8,2470.319,13.33,0.028,79.9
2020-02-16T01:28:03,42.805,6.029,0.032,0.007,-0.012,104.0,108.0,102.0,13.3,1505.3,326.6,-0.7,1.8,2470.32,13.33,0.032,77.7
2020-02-16T01:31:03,42.805,6.029,0.029,0.003,0.006,105.0,107.0,100.0,13.3,1505.3,323.9,-0.7,1.8,2470.345,13.33,0.029,84.1
2020-02-16T01:34:03,42.805,6.029,0.04,0.001,0.007,104.0,107.0,101.0,13.3,1505.3,325.8,-0.7,1.8,2470.33,13.33,0.04,88.6
2020-02-16T01:37:03,42.805,6.029,0.033,0.017,-0.031,106.0,106.0,101.0,13.3,1505.3,325.8,-0.7,1.8,2470.282,13.33,0.037,62.7
2020-02-16T01:40:03,42.805,6.029,0.041,0.026,0.003,106.0,109.0,102.0,13.4,1505.3,324.7,-0.7,1.8,2470.259,13.33,0.048,57.6
2020-02-16T01:43:03,42.805,6.029,0.005,0.002,-0.018,104.0,110.0,101.0,13.3,1505.3,324.9,-0.7,1.8,2470.317,13.33,0.005,68.2
2020-02-16T01:46:03,42.805,6.029,0.014,0.014,-0.034,105.0,109.0,102.0,13.3,1505.3,326.2,-0.7,1.8,2470.301,13.33,0.019,45.0
2020-02-16T01:49:03,42.805,6.029,0.014,0.035,-0.002,105.0,110.0,102.0,13.4,1505.3,323.3,-0.7,1.8,2470.3,13.33,0.037,21.8
2020-02-16T01:52:03,42.805,6.029,0.04,0.025,-0.008,104.0,109.0,101.0,13.3,1505.3,326.5,-0.7,1.8,2470.276,13.33,0.047,58.0
2020-02-16T01:55:03,42.805,6.029,0.039,0.021,-0.043,105.0,108.0,102.0,13.4,1505.3,325.4,-0.7,1.8,2470.297,13.33,0.044,61.7
2020-02-16T01:58:03,42.805,6.029,0.009,0.024,-0.014,105.0,110.0,99.0,13.4,1505.3,326.5,-0.7,1.8,2470.319,13.33,0.025,20.6
2020-02-16T02:04:03,42.805,6.029,0.037,0.025,-0.035,103.0,109.0,101.0,13.4,1505.3,328.3,-0.7,1.8,2470.361,13.31,0.044,56.0
2020-02-16T02:07:03,42.805,6.029,0.019,0.01,-0.032,103.0,109.0,101.0,13.4,1505.3,325.3,-0.7,1.8,2470.318,13.31,0.021,62.2
2020-02-16T02:10:03,42.805,6.029,0.036,0.018,-0.022,104.0,108.0,103.0,13.3,1505.3,324.5,-0.7,1.9,2470.323,13.32,0.04,63.4
2020-02-16T02:13:03,42.805,6.029,0.021,0.022,-0.024,105.0,111.0,102.0,13.4,1505.3,325.2,-0.7,1.8,2470.333,13.32,0.03,43.7
2020-02-16T02:16:03,42.805,6.029,0.019,0.025,-0.019,105.0,110.0,101.0,13.4,1505.3,325.6,-0.8,1.8,2470.292,13.32,0.031,37.2
2020-02-16T02:19:03,42.805,6.029,0.018,0.009,-0.035,105.0,112.0,101.0,13.4,1505.3,325.8,-0.7,1.8,2470.324,13.32,0.02,63.4
2020-02-16T02:22:03,42.805,6.029,0.04,0.002,-0.045,104.0,111.0,102.0,13.4,1505.3,324.7,-0.7,1.8,2470.337,13.32,0.04,87.1
2020-02-16T02:25:03,42.805,6.029,0.016,0.019,-0.012,104.0,110.0,100.0,13.4,1505.3,322.7,-0.7,1.8,2470.316,13.32,0.024,40.1
2020-02-16T02:28:03,42.805,6.029,0.052,0.017,-0.007,104.0,110.0,101.0,13.3,1505.3,325.1,-0.7,1.8,2470.328,13.32,0.054,71.9
2020-02-16T02:31:03,42.805,6.029,0.01,0.011,-0.061,105.0,109.0,100.0,13.3,1505.3,328.6,-0.7,1.8,2470.271,13.32,0.014,42.3
2020-02-16T02:34:03,42.805,6.029,0.012,0.026,-0.044,104.0,110.0,101.0,13.4,1505.3,326.9,-0.7,1.9,2470.288,13.33,0.028,24.8
2020-02-16T02:37:03,42.805,6.029,0.004,0.003,-0.035,105.0,109.0,101.0,13.4,1505.3,328.1,-0.7,1.9,2470.259,13.33,0.005,53.1
2020-02-16T02:40:03,42.805,6.029,0.009,0.012,-0.017,105.0,110.0,101.0,13.4,1505.3,327.2,-0.7,1.9,2470.319,13.33,0.015,36.9
2020-02-16T02:43:03,42.805,6.029,0.026,0.013,-0.005,104.0,110.0,101.0,13.4,1505.3,325.3,-0.7,1.8,2470.356,13.33,0.029,63.4
2020-02-16T02:46:03,42.805,6.029,0.009,0.027,-0.023,106.0,111.0,101.0,13.4,1505.3,325.2,-0.7,1.9,2470.328,13.33,0.028,18.4
2020-02-16T02:49:03,42.805,6.029,-0.007,0.029,-0.037,104.0,111.0,101.0,13.4,1505.3,327.3,-0.7,1.8,2470.326,13.33,0.029,346.4
2020-02-16T02:52:03,42.805,6.029,-0.012,0.043,-0.054,104.0,110.0,101.0,13.4,1505.3,325.0,-0.7,1.8,2470.33,13.33,0.044,344.4
2020-02-16T02:55:03,42.805,6.029,-0.013,0.038,-0.04,103.0,111.0,101.0,13.4,1505.3,324.3,-0.7,1.8,2470.268,13.33,0.04,341.1
2020-02-16T02:58:03,42.805,6.029,0.009,0.009,-0.017,105.0,111.0,102.0,13.3,1505.3,324.5,-0.7,1.8,2470.291,13.33,0.012,45.0
2020-02-16T03:04:02,42.805,6.029,0.005,0.018,-0.055,104.0,112.0,101.0,13.4,1505.3,323.2,-0.7,1.8,2470.344,13.31,0.018,15.5
2020-02-16T03:07:03,42.805,6.029,0.018,0.012,-0.037,104.0,111.0,102.0,13.3,1505.3,325.6,-0.7,1.8,2470.337,13.31,0.021,56.3
2020-02-16T03:10:03,42.805,6.029,0.01,0.011,-0.037,105.0,110.0,101.0,13.3,1505.3,328.3,-0.7,1.8,2470.309,13.32,0.014,42.3
2020-02-16T03:13:03,42.805,6.029,0.016,0.006,-0.018,104.0,109.0,102.0,13.4,1505.3,326.1,-0.7,1.8,2470.297,13.32,0.017,69.4
2020-02-16T03:16:03,42.805,6.029,0.024,0.015,-0.038,104.0,110.0,101.0,13.4,1505.3,327.9,-0.7,1.9,2470.327,13.32,0.028,58.0
2020-02-16T03:19:03,42.805,6.029,0.015,0.007,-0.024,105.0,111.0,101.0,13.3,1505.3,324.2,-0.7,1.8,2470.339,13.32,0.016,65.0
2020-02-16T03:22:03,42.805,6.029,0.006,0.019,-0.031,106.0,111.0,100.0,13.4,1505.3,324.2,-0.7,1.8,2470.299,13.33,0.019,17.5
2020-02-16T03:25:03,42.805,6.029,0.01,0.022,-0.023,104.0,112.0,100.0,13.4,1505.3,326.9,-0.7,1.8,2470.286,13.32,0.024,24.4
2020-02-16T03:28:03,42.805,6.029,0.019,0.02,-0.037,105.0,109.0,102.0,13.3,1505.3,326.3,-0.7,1.9,2470.306,13.33,0.027,43.5
2020-02-16T03:34:02,42.805,6.029,0.001,0.03,0.001,105.0,110.0,101.0,13.4,1505.3,327.4,-0.7,1.8,2470.346,13.31,0.03,1.9
2020-02-16T03:37:02,42.805,6.029,0.012,0.028,-0.012,104.0,111.0,102.0,13.3,1505.3,323.5,-0.7,1.9,2470.318,13.31,0.03,23.2
2020-02-16T03:40:03,42.805,6.029,-0.006,0.029,-0.018,104.0,111.0,101.0,13.3,1505.3,326.9,-0.7,1.8,2470.329,13.32,0.029,348.3
2020-02-16T03:43:03,42.805,6.029,-0.008,0.008,-0.035,105.0,111.0,101.0,13.3,1505.3,326.2,-0.7,1.9,2470.311,13.32,0.011,315.0
2020-02-16T03:46:03,42.805,6.029,-0.003,0.011,-0.015,104.0,113.0,102.0,13.4,1505.3,325.9,-0.7,1.9,2470.329,13.32,0.011,344.7
2020-02-16T03:49:03,42.805,6.029,-0.012,0.021,-0.022,106.0,111.0,103.0,13.4,1505.3,325.8,-0.7,1.9,2470.31,13.32,0.024,330.3
2020-02-16T03:52:02,42.805,6.029,0.001,0.026,-0.033,106.0,110.0,101.0,13.3,1505.3,325.2,-0.7,1.9,2470.288,13.32,0.026,2.2
2020-02-16T03:55:03,42.805,6.029,0.043,0.022,-0.014,105.0,112.0,101.0,13.3,1505.3,328.6,-0.7,1.8,2470.329,13.33,0.048,62.9
2020-02-16T03:58:03,42.805,6.029,0.023,0.033,-0.019,106.0,111.0,101.0,13.4,1505.3,324.0,-0.7,1.8,2470.306,13.33,0.04,34.9
2020-02-16T04:04:02,42.805,6.029,0.003,0.012,-0.025,103.0,111.0,102.0,13.4,1505.3,328.2,-0.7,1.8,2470.323,13.31,0.012,14.0
2020-02-16T04:07:02,42.805,6.029,0.011,0.019,-0.04,104.0,110.0,102.0,13.4,1505.3,327.0,-0.7,1.8,2470.29,13.31,0.021,30.1
2020-02-16T04:10:03,42.805,6.029,0.035,0.021,-0.036,103.0,111.0,101.0,13.4,1505.3,325.6,-0.7,1.8,2470.35,13.32,0.04,59.0
2020-02-16T04:13:03,42.805,6.029,0.002,0.017,-0.004,103.0,110.0,102.0,13.3,1505.3,328.3,-0.7,1.8,2470.321,13.32,0.017,6.7
2020-02-16T04:16:03,42.805,6.029,0.013,0.035,-0.023,104.0,110.0,101.0,13.4,1505.3,326.4,-0.7,1.8,2470.341,13.32,0.037,20.4
2020-02-16T04:19:03,42.805,6.029,0.025,0.022,-0.025,105.0,110.0,101.0,13.4,1505.3,325.6,-0.7,1.8,2470.31,13.32,0.033,48.7
2020-02-16T04:22:03,42.805,6.029,0.021,0.015,-0.053,104.0,111.0,101.0,13.4,1505.3,326.6,-0.7,1.8,2470.27,13.32,0.025,54.5
2020-02-16T04:25:03,42.805,6.029,0.035,0.034,-0.041,103.0,111.0,100.0,13.4,1505.3,326.9,-0.7,1.8,2470.336,13.32,0.048,45.8
2020-02-16T04:28:03,42.805,6.029,0.014,0.021,-0.055,103.0,110.0,102.0,13.3,1505.3,324.0,-0.7,1.8,2470.275,13.33,0.025,33.7
2020-02-16T04:31:03,42.805,6.029,0.043,0.014,-0.012,103.0,109.0,101.0,13.4,1505.3,325.2,-0.7,1.8,2470.272,13.33,0.045,72.0
2020-02-16T04:34:03,42.805,6.029,0.009,0.017,-0.006,103.0,112.0,102.0,13.4,1505.3,324.8,-0.7,1.8,2470.323,13.33,0.019,27.9
2020-02-16T04:37:02,42.805,6.029,0.031,0.033,-0.015,105.0,111.0,100.0,13.4,1505.3,325.8,-0.7,1.8,2470.291,13.33,0.045,43.2
2020-02-16T04:40:03,42.805,6.029,0.014,0.014,-0.055,104.0,111.0,101.0,13.4,1505.3,323.2,-0.7,1.9,2470.3,13.33,0.019,45.0
2020-02-16T04:43:03,42.805,6.029,0.001,0.018,-0.047,104.0,109.0,100.0,13.4,1505.3,328.2,-0.7,1.8,2470.261,13.33,0.018,3.2
2020-02-16T04:46:03,42.805,6.029,0.026,0.031,-0.037,104.0,111.0,101.0,13.4,1505.3,326.2,-0.7,1.8,2470.266,13.33,0.04,40.0
2020-02-16T04:49:03,42.805,6.029,0.026,0.022,-0.014,105.0,110.0,102.0,13.4,1505.3,327.1,-0.7,1.8,2470.258,13.33,0.034,49.8
2020-02-16T04:52:02,42.805,6.029,0.033,0.008,-0.005,104.0,110.0,103.0,13.4,1505.3,325.2,-0.7,1.8,2470.215,13.33,0.033,76.4
2020-02-16T04:55:03,42.805,6.029,0.013,0.025,-0.024,105.0,111.0,102.0,13.4,1505.3,327.4,-0.7,1.9,2470.268,13.33,0.028,27.5
2020-02-16T04:58:02,42.805,6.029,0.027,0.03,-0.02,106.0,112.0,102.0,13.4,1505.3,325.7,-0.7,1.9,2470.265,13.33,0.04,42.0
2020-02-16T05:04:03,42.805,6.029,0.027,0.018,-0.032,104.0,111.0,100.0,13.4,1505.3,327.1,-0.8,1.8,2470.285,13.31,0.032,56.3
2020-02-16T05:07:03,42.805,6.029,0.004,0.013,-0.025,104.0,112.0,102.0,13.4,1505.3,326.9,-0.7,1.8,2470.296,13.31,0.013,17.1
2020-02-16T05:10:03,42.805,6.029,0.031,0.034,-0.028,104.0,112.0,102.0,13.3,1505.3,326.2,-0.7,1.9,2470.281,13.32,0.046,42.4
2020-02-16T05:13:03,42.805,6.029,0.01,0.035,-0.029,104.0,113.0,101.0,13.4,1505.3,323.5,-0.7,1.8,2470.267,13.32,0.036,15.9
2020-02-16T05:16:03,42.805,6.029,0.012,-0.001,-0.003,105.0,113.0,100.0,13.4,1505.3,326.7,-0.7,1.9,2470.27,13.32,0.012,94.8
2020-02-16T05:19:03,42.805,6.029,0.012,0.014,-0.042,105.0,113.0,101.0,13.4,1505.3,327.3,-0.7,1.8,2470.239,13.33,0.018,40.6
2020-02-16T05:22:03,42.805,6.029,0.019,0.017,-0.029,105.0,113.0,100.0,13.3,1505.3,326.3,-0.7,1.8,2470.288,13.33,0.025,48.2
2020-02-16T05:25:03,42.805,6.029,0.012,0.02,-0.027,104.0,114.0,101.0,13.3,1505.3,323.7,-0.7,1.9,2470.282,13.33,0.023,31.0
2020-02-16T05:28:03,42.805,6.029,0.02,0.014,-0.024,105.0,112.0,101.0,13.4,1505.3,326.8,-0.7,1.8,2470.287,13.33,0.024,55.0
2020-02-16T05:31:03,42.805,6.029,0.004,0.014,-0.005,105.0,112.0,101.0,13.4,1505.3,322.8,-0.7,1.9,2470.165,13.33,0.014,15.9
2020-02-16T05:34:03,42.805,6.029,0.008,0.034,-0.046,104.0,112.0,101.0,13.4,1505.3,325.0,-0.7,1.8,2470.271,13.33,0.034,13.2
2020-02-16T05:37:03,42.805,6.029,0.034,0.015,-0.024,105.0,112.0,100.0,13.4,1505.3,328.6,-0.7,1.8,2470.262,13.33,0.037,66.2
2020-02-16T05:40:03,42.805,6.029,0.017,0.027,-0.045,105.0,113.0,102.0,13.3,1505.3,323.1,-0.7,1.8,2470.285,13.33,0.031,32.2
2020-02-16T05:43:03,42.805,6.029,0.003,0.034,-0.002,105.0,112.0,103.0,13.4,1505.3,325.8,-0.7,1.8,2470.277,13.33,0.034,5.0
2020-02-16T05:46:03,42.805,6.029,0.037,0.023,-0.017,105.0,112.0,103.0,13.3,1505.3,325.3,-0.7,1.8,2470.247,13.33,0.043,58.1
2020-02-16T05:49:03,42.805,6.029,-0.001,0.024,-0.021,104.0,115.0,101.0,13.4,1505.3,326.0,-0.7,1.8,2470.285,13.33,0.024,357.6
2020-02-16T05:52:03,42.805,6.029,0.017,0.016,-0.033,103.0,117.0,102.0,13.3,1505.3,326.5,-0.7,1.8,2470.25,13.33,0.023,46.7
2020-02-16T05:55:03,42.805,6.029,0.019,0.022,-0.015,104.0,116.0,102.0,13.3,1505.3,326.3,-0.7,1.8,2470.254,13.33,0.029,40.8
2020-02-16T05:58:03,42.805,6.029,0.025,0.0,-0.021,105.0,115.0,101.0,13.4,1505.3,325.9,-0.7,1.8,2470.222,13.33,0.025,90.0
2020-02-16T06:04:03,42.805,6.029,0.021,0.04,0.01,105.0,115.0,101.0,13.4,1505.3,327.7,-0.7,1.9,2470.27,13.31,0.045,27.7
2020-02-16T06:07:03,42.805,6.029,0.008,0.038,0.01,105.0,117.0,101.0,13.4,1505.3,324.6,-0.7,1.9,2470.287,13.31,0.038,11.9
2020-02-16T06:10:03,42.805,6.029,0.04,0.042,-0.008,104.0,117.0,102.0,13.3,1505.3,323.9,-0.7,1.8,2470.281,13.32,0.057,43.6
2020-02-16T06:13:03,42.805,6.029,0.027,0.048,-0.022,105.0,117.0,100.0,13.4,1505.3,324.8,-0.7,1.8,2470.226,13.32,0.055,29.4
2020-02-16T06:16:03,42.805,6.029,0.003,0.021,-0.028,105.0,115.0,101.0,13.3,1505.3,324.5,-0.8,1.8,2470.263,13.32,0.021,8.1
2020-02-16T06:19:03,42.805,6.029,0.027,0.027,-0.024,105.0,117.0,102.0,13.3,1505.3,322.7,-0.7,1.8,2470.263,13.32,0.038,45.0
2020-02-16T06:22:02,42.805,6.029,0.019,0.019,-0.001,106.0,116.0,102.0,13.4,1505.3,327.4,-0.7,1.8,2470.228,13.32,0.026,45.0
2020-02-16T06:25:03,42.805,6.029,0.029,0.035,-0.027,105.0,116.0,101.0,13.4,1505.3,326.3,-0.7,1.8,2470.289,13.32,0.045,39.6
2020-02-16T06:28:03,42.805,6.029,0.027,0.016,-0.011,105.0,119.0,101.0,13.4,1505.3,324.0,-0.7,1.8,2470.287,13.32,0.031,59.3
2020-02-16T06:31:03,42.805,6.029,0.024,0.045,-0.009,105.0,117.0,101.0,13.4,1505.3,327.9,-0.8,1.8,2470.264,13.32,0.051,28.1
2020-02-16T06:34:03,42.805,6.029,0.011,0.022,-0.029,104.0,116.0,102.0,13.3,1505.3,324.7,-0.8,1.8,2470.261,13.32,0.024,26.6
2020-02-16T06:37:03,42.805,6.029,0.01,0.038,-0.044,105.0,115.0,102.0,13.4,1505.3,325.4,-0.7,1.8,2470.227,13.32,0.039,14.7
2020-02-16T06:40:03,42.805,6.029,0.025,0.023,-0.04,105.0,115.0,102.0,13.3,1505.3,323.9,-0.7,1.8,2470.288,13.32,0.033,47.4
2020-02-16T06:43:03,42.805,6.029,0.003,0.022,-0.012,105.0,116.0,101.0,13.3,1505.3,326.6,-0.7,1.8,2470.269,13.32,0.022,7.8
2020-02-16T06:46:03,42.805,6.029,0.036,0.036,0.005,105.0,119.0,101.0,13.4,1505.3,327.3,-0.7,1.8,2470.26,13.32,0.05,45.0
2020-02-16T06:49:03,42.805,6.029,-0.006,0.027,-0.033,105.0,120.0,101.0,13.3,1505.3,325.4,-0.7,1.8,2470.246,13.32,0.027,347.5
2020-02-16T06:52:03,42.805,6.029,0.04,0.007,-0.05,105.0,119.0,102.0,13.4,1505.3,325.9,-0.7,1.9,2470.254,13.32,0.04,80.1
2020-02-16T06:55:03,42.805,6.029,0.032,0.027,-0.022,105.0,117.0,101.0,13.4,1505.3,325.5,-0.7,1.8,2470.241,13.32,0.041,49.8
2020-02-16T06:58:03,42.805,6.029,0.022,0.027,0.025,104.0,118.0,101.0,13.4,1505.3,326.2,-0.7,1.9,2470.276,13.32,0.034,39.2
2020-02-16T07:04:03,42.805,6.029,0.008,0.025,-0.04,105.0,118.0,101.0,13.4,1505.2,324.5,-0.7,1.8,2470.276,13.3,0.026,17.7
2020-02-16T07:07:03,42.805,6.029,0.008,0.037,-0.018,105.0,118.0,101.0,13.4,1505.3,323.0,-0.7,1.8,2470.256,13.31,0.037,12.2
2020-02-16T07:10:03,42.805,6.029,0.004,0.025,-0.037,105.0,118.0,101.0,13.4,1505.3,327.7,-0.7,1.8,2470.253,13.32,0.025,9.1
2020-02-16T07:13:03,42.805,6.029,0.029,0.019,-0.04,105.0,116.0,102.0,13.4,1505.3,326.7,-0.7,1.8,2470.236,13.32,0.034,56.8
2020-02-16T07:16:03,42.805,6.029,0.021,0.032,-0.04,105.0,118.0,102.0,13.4,1505.3,325.1,-0.7,1.8,2470.295,13.32,0.038,33.3
2020-02-16T07:19:03,42.805,6.029,-0.011,0.025,-0.028,104.0,116.0,102.0,13.4,1505.3,325.3,-0.7,1.8,2470.266,13.32,0.027,336.3
2020-02-16T07:25:02,42.805,6.029,0.025,0.014,-0.023,106.0,117.0,103.0,13.3,1505.2,326.6,-0.7,1.8,2470.258,13.3,0.028,60.7
2020-02-16T07:28:03,42.805,6.029,0.035,0.03,0.024,106.0,121.0,101.0,13.4,1505.3,324.8,-0.7,1.8,2470.304,13.31,0.046,49.4
2020-02-16T07:31:03,42.805,6.029,0.043,0.027,-0.037,105.0,119.0,101.0,13.3,1505.3,325.0,-0.7,1.8,2470.271,13.31,0.05,57.9
2020-02-16T07:34:03,42.805,6.029,0.034,0.03,-0.032,106.0,120.0,102.0,13.4,1505.3,327.0,-0.7,1.8,2470.275,13.32,0.045,48.6
2020-02-16T07:37:03,42.805,6.029,0.037,0.042,0.025,104.0,121.0,102.0,13.4,1505.3,327.9,-0.7,1.9,2470.282,13.32,0.055,41.4
2020-02-16T07:40:03,42.805,6.029,0.02,0.026,-0.005,106.0,119.0,100.0,13.4,1505.3,322.7,-0.7,1.8,2470.258,13.32,0.032,37.6
2020-02-16T07:43:03,42.805,6.029,0.025,0.034,-0.007,104.0,119.0,101.0,13.4,1505.3,326.9,-0.7,1.8,2470.253,13.32,0.042,36.3
2020-02-16T07:46:03,42.805,6.029,0.033,0.047,-0.012,105.0,121.0,101.0,13.4,1505.3,324.9,-0.7,1.8,2470.27,13.32,0.057,35.1
2020-02-16T07:49:03,42.805,6.029,0.039,0.025,0.023,105.0,120.0,101.0,13.4,1505.3,324.6,-0.7,1.8,2470.262,13.32,0.046,57.3
2020-02-16T07:52:03,42.805,6.029,0.012,0.014,-0.039,104.0,118.0,102.0,13.3,1505.3,327.1,-0.7,1.8,2470.272,13.32,0.018,40.6
2020-02-16T07:55:03,42.805,6.029,0.028,0.048,-0.024,106.0,117.0,102.0,13.4,1505.3,323.5,-0.7,1.8,2470.257,13.32,0.055,30.3
2020-02-16T07:58:03,42.805,6.029,0.004,0.034,-0.021,106.0,119.0,101.0,13.4,1505.3,324.2,-0.7,1.9,2470.296,13.32,0.034,6.7
2020-02-16T08:04:02,42.805,6.029,0.039,0.053,0.004,107.0,123.0,103.0,13.4,1505.2,326.4,-0.7,1.8,2470.275,13.3,0.065,36.3
2020-02-16T08:07:03,42.805,6.029,0.012,-0.003,-0.009,105.0,119.0,102.0,13.4,1505.3,324.1,-0.7,1.8,2470.27,13.31,0.012,104.0
2020-02-16T08:10:03,42.805,6.029,-0.01,0.035,-0.044,106.0,121.0,103.0,13.4,1505.3,323.8,-0.7,1.8,2470.289,13.31,0.036,344.1
2020-02-16T08:13:03,42.805,6.029,0.015,0.028,0.003,107.0,121.0,103.0,13.4,1505.3,323.2,-0.7,1.8,2470.294,13.32,0.031,28.2
2020-02-16T08:16:03,42.805,6.029,0.023,0.028,-0.03,108.0,124.0,104.0,13.4,1505.3,328.4,-0.7,1.8,2470.3,13.32,0.036,39.4
2020-02-16T08:19:03,42.805,6.029,0.014,0.015,-0.051,107.0,125.0,104.0,13.4,1505.3,327.0,-0.7,1.8,2470.282,13.32,0.02,43.0
2020-02-16T08:22:03,42.805,6.029,0.002,0.015,-0.062,106.0,125.0,103.0,13.4,1505.3,324.9,-0.7,1.8,2470.278,13.32,0.015,7.6
2020-02-16T08:25:03,42.805,6.029,0.008,0.029,-0.028,109.0,125.0,104.0,13.4,1505.3,324.5,-0.7,1.8,2470.269,13.32,0.03,15.4
2020-02-16T08:28:03,42.805,6.029,0.044,0.031,-0.023,107.0,122.0,103.0,13.4,1505.3,328.2,-0.7,1.8,2470.275,13.32,0.053,54.8
2020-02-16T08:31:03,42.805,6.029,0.025,0.004,-0.028,106.0,123.0,103.0,13.4,1505.3,326.9,-0.7,1.9,2470.277,13.32,0.025,80.9
2020-02-16T08:34:03,42.805,6.029,0.018,0.039,-0.016,108.0,125.0,103.0,13.4,1505.3,328.7,-0.7,1.8,2470.253,13.32,0.042,24.8
2020-02-16T08:37:03,42.805,6.029,-0.004,0.024,-0.031,108.0,124.0,103.0,13.3,1505.3,326.8,-0.7,1.8,2470.276,13.32,0.024,350.5
2020-02-16T08:40:03,42.805,6.029,0.025,0.035,-0.034,107.0,127.0,103.0,13.4,1505.3,327.3,-0.7,1.9,2470.268,13.32,0.043,35.5
2020-02-16T08:43:02,42.805,6.029,0.007,0.031,-0.033,106.0,127.0,102.0,13.3,1505.3,326.2,-0.7,1.8,2470.256,13.32,0.031,12.7
2020-02-16T08:46:03,42.805,6.029,0.003,0.034,-0.043,105.0,125.0,102.0,13.3,1505.3,328.2,-0.7,1.9,2470.28,13.32,0.034,5.0
2020-02-16T08:49:03,42.805,6.029,0.02,0.021,-0.051,107.0,124.0,103.0,13.3,1505.3,327.2,-0.7,1.9,2470.28,13.32,0.028,43.6
2020-02-16T08:52:03,42.805,6.029,0.005,0.004,-0.055,107.0,123.0,101.0,13.3,1505.3,327.8,-0.7,1.8,2470.3,13.32,0.006,51.3
2020-02-16T08:55:03,42.805,6.029,0.041,0.034,-0.02,107.0,123.0,103.0,13.4,1505.3,326.3,-0.7,1.8,2470.248,13.32,0.053,50.3
2020-02-16T08:58:03,42.805,6.029,0.028,0.009,-0.017,105.0,126.0,102.0,13.4,1505.3,326.8,-0.7,1.9,2470.262,13.32,0.029,72.2
2020-02-16T09:04:03,42.805,6.029,-0.001,0.021,-0.076,105.0,125.0,103.0,13.4,1505.2,327.1,-0.7,1.9,2470.319,13.3,0.021,357.3
2020-02-16T09:07:03,42.805,6.029,0.0,-0.004,-0.057,107.0,123.0,102.0,13.3,1505.3,323.1,-0.7,1.9,2470.338,13.31,0.004,180.0
2020-02-16T09:10:03,42.805,6.029,0.02,0.03,-0.035,107.0,122.0,102.0,13.4,1505.3,325.9,-0.8,1.8,2470.27,13.31,0.036,33.7
2020-02-16T09:13:03,42.805,6.029,0.021,0.039,-0.019,105.0,125.0,101.0,13.3,1505.3,327.2,-0.7,1.8,2470.291,13.32,0.044,28.3
2020-02-16T09:16:03,42.805,6.029,0.029,0.001,-0.015,105.0,123.0,102.0,13.4,1505.3,326.5,-0.7,1.8,2470.308,13.32,0.029,88.0
2020-02-16T09:19:03,42.805,6.029,0.02,0.01,-0.043,105.0,121.0,102.0,13.4,1505.3,326.7,-0.7,1.9,2470.277,13.32,0.022,63.4
2020-02-16T09:22:03,42.805,6.029,0.003,0.012,-0.046,105.0,121.0,102.0,13.4,1505.3,326.3,-0.7,1.9,2470.312,13.32,0.012,14.0
2020-02-16T09:25:03,42.805,6.029,0.0,0.035,-0.025,105.0,124.0,103.0,13.4,1505.3,324.4,-0.7,1.8,2470.289,13.32,0.035,0.0
2020-02-16T09:28:03,42.805,6.029,0.004,0.034,-0.056,105.0,125.0,102.0,13.4,1505.3,323.9,-0.7,1.8,2470.324,13.32,0.034,6.7
2020-02-16T09:31:03,42.805,6.029,0.047,0.017,-0.018,105.0,125.0,102.0,13.4,1505.3,327.9,-0.7,1.8,2470.31,13.32,0.049,70.1
2020-02-16T09:34:03,42.805,6.029,0.005,0.001,-0.067,105.0,123.0,101.0,13.4,1505.3,325.6,-0.7,1.9,2470.284,13.32,0.005,78.7
2020-02-16T09:37:03,42.805,6.029,0.012,0.026,-0.041,105.0,126.0,101.0,13.4,1505.3,323.0,-0.7,1.9,2470.246,13.32,0.028,24.8
2020-02-16T09:40:03,42.805,6.029,0.033,0.026,-0.065,106.0,124.0,102.0,13.3,1505.3,325.1,-0.7,1.8,2470.325,13.32,0.042,51.8
2020-02-16T09:43:03,42.805,6.029,0.036,0.0,-0.027,105.0,123.0,101.0,13.3,1505.3,324.4,-0.7,1.8,2470.305,13.32,0.036,90.0
2020-02-16T09:46:03,42.805,6.029,0.041,0.013,-0.024,105.0,122.0,102.0,13.4,1505.3,326.2,-0.7,1.8,2470.282,13.32,0.043,72.4
2020-02-16T09:49:03,42.805,6.029,0.003,0.006,-0.067,105.0,122.0,102.0,13.4,1505.3,327.9,-0.7,1.8,2470.337,13.32,0.006,26.6
2020-02-16T09:52:03,42.805,6.029,0.024,0.024,-0.048,104.0,121.0,102.0,13.3,1505.3,324.1,-0.7,1.9,2470.335,13.32,0.033,45.0
2020-02-16T09:55:03,42.805,6.029,0.031,0.018,-0.033,105.0,120.0,102.0,13.4,1505.3,325.1,-0.7,1.8,2470.351,13.32,0.035,59.9
2020-02-16T09:58:03,42.805,6.029,0.019,0.01,-0.027,104.0,121.0,102.0,13.4,1505.3,328.2,-0.7,1.9,2470.311,13.32,0.021,62.2
2020-02-16T10:04:02,42.805,6.029,0.039,0.018,-0.031,105.0,122.0,102.0,13.4,1505.2,324.6,-0.7,1.8,2470.378,13.3,0.042,65.2
2020-02-16T10:07:03,42.805,6.029,0.03,0.001,-0.017,105.0,120.0,103.0,13.4,1505.3,322.9,-0.7,1.8,2470.351,13.31,0.03,88.1
2020-02-16T10:10:03,42.805,6.029,0.012,0.024,-0.027,105.0,119.0,103.0,13.4,1505.3,326.0,-0.7,1.8,2470.359,13.31,0.026,26.6